This is the latest recevied weather packets stored in our database for station/object WA1TYB-13. If no packets are shown the sender has not sent any weather packets the latest 10 day(s).
| Time | Temp. | Humidity | Pressure | Rain* | Wind** | Luminosity | Snow |
|---|---|---|---|---|---|---|---|
| 1778011738 | 8.89° C | 39% | 1019.1 hPa | 0 mm | - | 299 W/m² | - |
| 1778011435 | 8.89° C | 37% | 1019.4 hPa | 0 mm | - | 252 W/m² | - |
| 1778011131 | 8.89° C | 37% | 1019.1 hPa | 0 mm | - | 321 W/m² | - |
| 1778010828 | 8.89° C | 39% | 1019.4 hPa | 0 mm | - | 366 W/m² | - |
| 1778010525 | 8.89° C | 37% | 1019.4 hPa | 0 mm | - | 301 W/m² | - |
| 1778010223 | 8.89° C | 37% | 1019.3 hPa | 0 mm | - | 271 W/m² | - |
| 1778009918 | 8.89° C | 37% | 1019.7 hPa | 0 mm | - | 312 W/m² | - |
| 1778009616 | 8.89° C | 39% | 1019.7 hPa | 0 mm | - | 304 W/m² | - |
| 1778009313 | 8.89° C | 39% | 1019.6 hPa | 0 mm | - | 416 W/m² | - |
| 1778009012 | 8.89° C | 39% | 1019.5 hPa | 0 mm | - | 276 W/m² | - |
| 1778008709 | 8.33° C | 40% | 1019.6 hPa | 0 mm | - | 247 W/m² | - |
| 1778008407 | 8.89° C | 37% | 1019.6 hPa | 0 mm | - | 275 W/m² | - |
| 1778008104 | 8.89° C | 39% | 1019.5 hPa | 0 mm | - | 354 W/m² | - |
| 1778007799 | 8.89° C | 39% | 1019.3 hPa | 0 mm | - | 307 W/m² | - |
| 1778007495 | 8.89° C | 38% | 1019.4 hPa | 0 mm | - | 379 W/m² | - |
| 1778007192 | 8.89° C | 38% | 1019.5 hPa | 0 mm | - | 308 W/m² | - |
| 1778006888 | 8.33° C | 35% | 1019.4 hPa | 0 mm | - | 305 W/m² | - |
| 1778006585 | 8.89° C | 38% | 1019.4 hPa | 0 mm | - | 503 W/m² | - |
| 1778006282 | 8.89° C | 37% | 1019.8 hPa | 0 mm | - | 301 W/m² | - |
| 1778005979 | 10° C | 34% | 1019.5 hPa | 0 mm | - | 406 W/m² | - |
| 1778005676 | 9.44° C | 37% | 1019.6 hPa | 0 mm | - | 821 W/m² | - |
| 1778005372 | 8.89° C | 36% | 1019.5 hPa | 0 mm | - | 509 W/m² | - |
| 1778005069 | 8.33° C | 37% | 1019.6 hPa | 0 mm | - | 289 W/m² | - |
| 1778004767 | 8.33° C | 37% | 1019.4 hPa | 0 mm | - | 248 W/m² | - |
| 1778004463 | 9.44° C | 38% | 1019.3 hPa | 0 mm | - | 320 W/m² | - |
* Rain latest hour (hover to see other rain measurements)
** Current wind speed in m/s (hover to see current wind gust speed)